SCP
0 0 0 0 0 0 0 0 0 0 0 0 0 0 0 0 0 0 0 0 0 0 0 0 0 0 0 0 0 0 0 0 0 0 0 0 0 0 0 0 0 0 0
0 0 0 0 0 0 0 0 0 0 0 0 0 0 0 0 0 0 0 0 0 0 0 0 0 0 0 0 0 0 0 0 0 0 0 0 0 0 0 0 0 0 0
0 0 0 0 0 0 0 0 0 0 0 0 0 0 0 0 0 0 0 0 0 0 0 0 0 0 0 0 0 0 0 0 0 0 0 0 0 0 0 0 0 0 0
0 0 0 0 0 0 0 0 0 0 0 0 0 0 0 0 0 0 0 0 0 0 0 0 0 0 0 0 0 0 0 0 0 0 0 0 0 0 0 0 0 0 0
0 0 0 0 0 0 0 0 0 0 0 0 0 0 0 0 0 0 0 0 0 0 0 0 0 0 0 0 0 0 0 0 0 0 0 0 0 0 0 0 0 0 0
0 0 0 0 0 0 0 0 0 0 0 0 0 0 0 0 0 0 0 0 0 0 0 0 0 0 0 0 0 0 0 0 0 0 0 0 0 0 0 0 0 0 0
0 0 0 0 0 0 0 0 0 0 0 0 0 0 0 0 0 0 0 0 0 0 0 0 0 0 0 0 0 0 0 0 0 0 0 0 0 0 0 0 0 0 0
0 0 0 0 0 0 0 0 0 0 0 0 0 0 0 0 0 0 0 0 0 0 0 0 0 0 0 0 0 0 0 0 0 0 0 0 0 0 0 0 0 0 0
0 0 0 0 0 0 0 0 0 0 0 0 0 0 0 0 0 0 0 0 0 0 0 0 0 0 0 0 0 0 0 0 0 0 0 0 0 0 0 0 0 0 0
0 0 0 0 0 0 0 0 0 0 0 0 0 0 0 0 0 0 0 0 0 0 0 0 0 0 0 0 0 0 0 0 0 0 0 0 0 0 0 0 0 0 0
0 0 0 0 0 0 0 0 0 0 0 0 0 0 0 0 0 0 0 0 0 0 0 0 0 0 0 0 0 0 0 0 0 0 0 0 0 0 0 0 0 0 0
0 0 0 0 0 0 0 0 0 0 0 0 0 0 0 0 0 0 0 0 0 0 0 0 0 0 0 0 0 0 0 0 0 0 0 0 0 0 0 0 0 0 0
0 0 0 0 0 0 0 0 0 0 0 0 0 0 0 0 0 0 0 0 0 0 0 0 0 0 0 0 0 0 0 0 0 0 0 0 0 0 0 0 0 0 0
0 0 0 0 0 0 0 0 0 0 0 0 0 0 0 0 0 0 0 0 0 0 0 0 0 0 0 0 0 0 0 0 0 0 0 0 0 0 0 0 0 0 0
0 0 0 0 0 0 0 0 0 0 0 0 0 0 0 0 0 0 0 0 0 0 0 0 0 0 0 0 0 0 0 0 0 0 0 0 0 0 0 0 0 0 0
0 0 0 0 0 0 0 0 0 0 0 0 0 0 0 0 0 0 0 0 0 0 0 0 0 0 0 0 0 0 0 0 0 0 0 0 0 0 0 0 0 0 0
0 0 0 0 0 0 0 0 0 0 0 0 0 0 0 0 0 0 0 0 0 0 0 0 0 0 0 0 0 0 0 0 0 0 0 0 0 0 0 0 0 0 0
0 0 0 0 0 0 0 0 0 0 0 0 0 0 0 0 0 0 0 0 0 0 0 0 0 0 0 0 0 0 0 0 0 0 0 0 0 0 0 0 0 0 0
0 0 0 0 0 0 0 0 0 0 0 0 0 0 0 0 0 0 0 0 0 0 0 0 0 0 0 0 0 0 0 0 0 0 0 0 0 0 0 0 0 0 0
0 0 0 0 0 0 0 0 0 0 0 0 0 0 0 0 0 0 0 0 0 0 0 0 0 0 0 0 0 0 0 0 0 0 0 0 0 0 0 0 0 0 0
0 0 0 0 0 0 0 0 0 0 0 0 0 0 0 0 0 0 0 0 0 0 0 0 0 0 0 0 0 0 0 0 0 0 0 0 0 0 0 0 0 0 0
0 0 0 0 0 0 0 0 0 0 0 0 0 0 0 0 0 0 0 0 0 0 0 0 0 0 0 0 0 0 0 0 0 0 0 0 0 0 0 0 0 0 0
0 0 0 0 0 0 0 0 0 0 0 0 0 0 0 0 0 0 0 0 0 0 0 0 0 0 0 0 0 0 0 0 0 0 0 0 0 0 0 0 0 0 0
0 0 0 0 0 0 0 0 0 0 0 0 0 0 0 0 0 0 0 0 0 0 0 0 0 0 0 0 0 0 0 0 0 0 0 0 0 0 0 0 0 0 0
0 0 0 0 0 0 0 0 0 0 0 0 0 0 0 0 0 0 0 0 0 0 0 0 0 0 0 0 0 0 0 0 0 0 0 0 0 0 0 0 0 0 0
0 0 0 0 0 0 0 0 0 0 0 0 0 0 0 0 0 0 0 0 0 0 0 0 0 0 0 0 0 0 0 0 0 0 0 0 0 0 0 0 0 0 0
Wind_Speed
2 2 2 2 2 2 2 2 3 4 5 5 6 7 6 6 6 6 5 13 14 14 14 14 13 12 12 11 11 11 10 11 10 11 11 11 11 10 10 11 11 11 10
2 3 3 3 3 2 2 3 4 4 4 4 5 6 5 5 6 6 5 7 13 14 14 14 13 13 12 12 11 11 11 11 11 11 11 11 11 11 11 11 11 11 11
3 3 3 3 2 3 4 4 4 3 3 4 5 6 5 5 5 5 5 4 5 11 13 14 14 13 13 12 12 12 12 12 12 11 11 12 12 12 12 11 11 11 11
4 4 3 3 3 3 3 3 3 3 3 3 4 4 4 4 5 5 5 5 4 5 8 13 13 13 13 13 13 12 12 12 12 12 12 12 12 12 12 11 11 11 11
5 3 3 3 4 3 3 3 3 3 3 3 3 3 3 4 4 5 5 5 5 5 4 8 12 13 14 13 13 13 13 12 11 12 12 12 12 12 11 11 11 11 11
4 3 2 3 4 3 3 3 4 3 2 2 4 4 3 3 3 4 5 4 4 5 5 5 5 8 13 13 13 13 12 12 12 12 12 12 12 12 12 12 12 12 12
3 3 2 2 3 3 3 3 3 3 2 2 3 3 3 4 4 4 3 3 4 4 4 5 4 4 5 11 12 12 11 12 12 12 12 12 12 12 12 12 12 12 12
3 2 2 2 3 3 3 2 2 1 1 1 1 1 1 2 3 3 3 3 3 3 4 6 5 5 5 4 7 11 11 11 12 12 11 11 11 11 11 11 11 11 12
3 3 2 2 2 3 2 1 1 2 1 1 0 1 2 1 1 2 3 3 3 3 3 4 6 5 6 5 4 8 11 10 11 11 11 10 10 10 10 10 11 11 11
2 2 2 2 2 2 2 1 2 1 1 1 1 1 1 2 2 1 1 2 3 4 3 4 5 5 6 5 7 10 11 10 10 10 10 10 10 9 9 10 10 10 10
2 2 2 2 2 2 2 2 2 2 1 1 0 1 1 0 1 2 2 1 2 2 3 3 3 3 5 4 4 8 11 10 9 9 10 9 9 9 9 9 9 9 9
1 1 1 1 1 1 2 2 2 2 1 1 0 1 1 1 0 1 2 2 2 1 2 2 3 3 3 4 6 9 9 9 9 9 9 9 9 8 8 8 8 8 8
1 1 1 1 1 1 2 2 1 1 1 1 1 1 1 1 1 2 2 2 2 1 1 2 2 2 3 3 4 8 8 8 8 8 8 8 8 7 7 7 7 7 7
2 2 1 1 1 1 2 2 1 1 1 2 2 1 1 1 1 2 2 2 1 1 1 1 1 2 2 3 4 5 4 7 6 6 6 6 6 6 6 6 6 6 7
3 3 2 2 1 1 2 2 2 1 2 2 1 1 1 1 1 2 2 2 2 2 1 1 1 1 2 3 4 3 3 5 5 5 5 5 5 5 6 6 6 6 6
3 3 2 3 2 2 2 2 1 1 2 2 1 2 1 1 2 2 1 1 1 2 2 1 1 2 2 3 4 3 3 7 5 5 4 4 4 4 4 5 5 5 5
3 3 3 3 3 2 2 2 2 1 1 1 1 2 1 1 2 1 1 1 2 3 3 1 1 2 2 2 2 2 3 3 3 5 4 4 3 3 3 3 4 4 4
4 3 3 3 2 2 2 2 2 1 1 1 1 2 2 2 2 1 1 2 2 2 3 3 1 1 1 2 2 2 3 3 3 5 6 4 3 3 2 2 2 2 2
3 2 2 3 2 2 2 2 2 2 1 1 1 2 2 3 2 1 2 2 2 2 2 3 2 1 1 1 1 1 2 1 3 4 6 5 4 3 2 1 1 1 1
3 3 3 3 2 2 2 2 2 2 1 1 1 1 2 2 2 2 2 2 2 3 2 2 2 1 1 1 1 1 1 1 2 2 3 4 5 5 3 2 1 1 1
2 2 3 3 2 2 1 1 1 1 2 1 1 1 2 4 4 3 2 2 2 2 2 2 1 1 1 1 1 1 1 1 1 1 2 2 3 2 3 4 4 3 2
2 2 2 3 3 1 2 2 1 0 2 2 2 2 2 3 4 5 5 5 4 3 2 2 1 2 2 2 1 1 1 0 2 2 1 2 2 2 3 3 4 4 4
2 2 2 3 3 3 3 2 1 0 1 2 2 2 2 3 3 3 3 3 2 2 3 3 2 2 2 2 2 1 1 2 3 2 1 2 1 2 2 3 6 6 6
3 2 2 3 2 3 4 3 2 1 1 1 2 3 3 3 3 3 2 2 1 1 2 2 2 2 2 2 2 3 3 2 1 1 1 2 2 2 2 2 5 6 7
3 3 2 3 3 3 5 4 3 2 1 2 2 2 3 3 4 4 2 2 2 1 2 3 3 2 2 2 2 1 0 0 2 2 1 1 1 1 2 2 3 5 5
3 3 3 3 4 4 5 5 4 2 2 2 1 1 2 3 4 4 3 3 2 2 2 2 2 2 2 2 2 3 2 2 1 2 1 1 1 0 2 2 1 2 3
Wind_Direction
66 76 85 75 70 79 87 64 62 61 57 48 60 70 72 74 81 79 68 65 65 65 67 69 69 70 72 71 71 75 81 85 85 84 83 82 81 80 78 74 73 71 67
63 66 69 65 57 54 63 75 73 73 72 67 64 66 65 72 79 90 88 70 65 63 62 63 64 68 71 73 72 76 82 85 86 84 83 81 80 77 77 73 70 69 66
66 72 67 75 66 57 53 57 61 64 72 72 67 66 58 56 69 75 85 87 74 64 62 60 59 61 65 70 72 76 81 83 84 83 81 79 76 75 75 73 73 69 65
72 71 63 70 70 64 64 64 64 63 63 70 68 66 61 56 63 67 70 75 77 73 63 63 61 59 60 65 70 74 80 84 84 83 81 79 76 74 73 73 73 70 67
63 71 60 68 69 59 55 64 61 67 73 78 88 82 66 56 58 68 66 64 70 78 77 70 66 62 59 61 67 70 74 79 83 83 82 80 77 75 73 72 74 72 68
60 68 63 67 76 67 55 64 67 58 72 72 81 84 81 75 60 58 65 61 58 68 70 76 72 64 60 59 62 65 70 75 80 81 80 78 76 74 72 72 73 71 68
52 70 71 61 77 80 75 81 82 74 67 82 78 70 61 70 79 61 61 67 64 67 69 68 66 65 60 56 56 62 69 74 77 79 78 78 77 74 72 71 72 70 68
43 57 91 90 86 87 75 75 81 72 49 80 107 116 100 53 51 74 69 70 64 63 69 72 69 68 68 57 57 61 64 72 76 77 78 79 78 76 74 75 74 70 67
58 42 46 84 108 118 122 116 110 99 68 346 65 123 126 136 108 52 69 73 67 60 63 69 67 66 75 68 64 61 66 67 75 76 77 79 79 78 76 74 73 70 67
70 58 42 71 93 103 119 142 109 93 92 345 333 21 102 131 135 126 52 73 79 69 63 67 66 65 68 70 68 72 71 67 71 73 73 74 75 77 76 75 73 70 66
88 71 48 58 78 98 110 95 82 78 80 91 45 44 56 70 123 130 140 116 69 61 75 73 74 75 78 78 77 75 74 69 70 71 72 72 71 72 75 76 73 67 62
90 73 67 64 78 88 98 103 102 105 93 74 56 98 129 114 126 112 134 141 119 90 83 81 79 82 86 81 83 84 80 74 71 70 70 69 67 66 67 71 69 64 60
140 129 96 56 70 91 95 92 98 119 123 93 74 50 50 71 102 101 111 124 130 140 104 85 98 98 100 97 94 93 85 82 77 73 68 65 62 61 61 63 62 60 58
148 139 125 103 74 84 94 86 76 70 80 80 74 64 62 39 68 101 119 121 124 122 107 121 92 102 104 111 117 113 98 95 89 82 75 70 66 62 59 58 58 57 55
149 148 143 124 103 89 92 92 81 67 74 69 68 73 88 79 75 76 92 123 135 132 134 152 125 129 117 112 133 133 123 110 104 97 90 81 74 68 64 61 58 58 54
137 152 148 145 149 132 106 88 81 71 82 80 77 67 64 73 76 77 72 48 73 126 131 140 148 152 137 134 142 141 136 127 125 119 109 98 88 80 73 66 59 58 53
149 167 165 160 150 143 132 131 146 129 123 144 153 121 102 92 103 102 92 72 61 88 112 113 115 128 123 130 132 148 140 144 150 147 135 121 107 95 81 70 57 52 47
166 175 166 154 145 146 145 143 154 154 154 136 135 126 126 106 92 91 104 105 101 105 127 136 136 142 157 161 161 169 162 165 167 163 157 151 142 129 110 79 55 44 38
163 157 151 141 147 149 145 152 155 158 161 170 159 145 147 135 143 141 128 117 120 113 114 132 151 148 171 169 152 181 180 184 177 165 169 175 174 173 177 161 91 27 17
164 167 164 149 153 152 147 158 155 151 149 108 93 117 120 131 135 144 133 131 129 120 120 128 147 162 166 192 145 199 254 234 212 176 182 181 188 194 201 203 207 248 281
163 161 158 153 153 159 153 129 143 152 144 122 71 69 87 103 100 98 106 109 116 124 137 141 155 152 177 161 201 218 223 253 255 195 191 199 186 189 203 220 219 227 235
167 155 158 158 155 155 122 110 57 147 163 153 148 149 136 116 116 114 106 101 105 127 150 153 168 174 203 197 201 206 211 228 275 258 174 236 176 187 202 198 199 205 226
175 175 165 153 155 156 154 164 194 286 176 157 162 174 174 151 150 156 146 130 122 135 146 155 167 197 196 202 179 211 229 229 233 240 151 249 218 210 213 204 200 208 219
175 181 177 162 155 168 173 183 207 204 214 201 185 176 167 175 179 152 152 162 173 194 194 171 181 200 186 184 184 203 223 240 272 287 153 227 245 230 223 215 215 214 218
175 176 186 169 161 178 188 191 187 182 197 221 208 180 175 164 166 165 158 169 173 201 180 160 162 175 165 152 147 94 7 185 271 278 273 213 257 251 238 232 226 211 218
179 177 186 185 179 180 190 194 199 195 200 209 203 183 179 165 168 171 178 183 193 209 186 189 214 249 245 230 195 177 184 196 233 269 256 197 258 305 295 264 224 228 235